Weather History for Dickinson, ND

Change the Weather History Date:

Friday, November 14, 2014

  Actual Average Record
Temperature  
Mean Temperature -2 °F 30 °F  
Max Temperature 7 °F 41 °F 68 °F (1953)
Min Temperature -11 °F 20 °F -16 °F (1940)
Degree Days  
Heating Degree Days 67 35  
Month to date heating degree days 544 441  
Since 1 July heating degree days 1463 1452  
Cooling Degree Days 0 0  
Month to date cooling degree days 0 0  
Year to date cooling degree days 256 419  
Moisture  
Dew Point -7 °F    
Average Humidity 86    
Maximum Humidity 100    
Minimum Humidity 72    
Precipitation  
Precipitation T in 0.02 in 0.38 in (1955)
Month to date precipitation 0.20 0.33  
Year to date precipitation 21.70 15.32  
Sea Level Pressure  
Sea Level Pressure 30.27 in    
Wind  
Wind Speed 5 mph (South)    
Max Wind Speed 12 mph    
Max Gust Speed 12 mph    
Visibility 7 miles    
Events Fog , Snow    
T = Trace of Precipitation, MM = Missing Value Source: NWS Daily Summary

Daily Weather History Graph

Daily Weather History Graph

Search for Another Location

Airport:

Trip Planner

Search our weather history database for the weather conditions in past years. The results will help you decide how hot, cold, wet, or windy it might be!

Date:

Astronomy

Nov. 14, 2014 Rise Set
Actual Time 6:52 AM MST 4:18 PM MST
Civil Twilight 6:19 AM MST 4:51 PM MST
Nautical Twilight 5:42 AM MST 5:27 PM MST
Astronomical Twilight 5:07 AM MST 6:03 PM MST
Moon 11:43 PM MST (11/14) 12:37 PM MST (11/14)
Length of Visible Light 10h 31m
Length of Day
9h 25m
Waning Gibbous, 49% of the Moon is Illuminated
Nov 14
Waning Gibbous
Nov 22
New
Nov 29
First Quarter
Dec 6
Full
Dec 14
Last Quarter

Hourly Weather History & Observations

Time (MST) Temp. Windchill Dew Point Humidity Pressure Visibility Wind Dir Wind Speed Gust Speed Precip Events Conditions
12:56 AM -8.0 °F -16.9 °F -13.0 °F 79% 30.42 in 10.0 mi SSE 3.5 mph - N/A   Clear
1:56 AM -6.0 °F -16.9 °F -9.9 °F 83% 30.40 in 10.0 mi SSE 4.6 mph - N/A   Clear
2:56 AM -9.0 °F -25.2 °F -14.1 °F 79% 30.39 in 10.0 mi SSE 8.1 mph - N/A   Clear
3:56 AM -6.0 °F -14.7 °F -11.0 °F 79% 30.38 in 10.0 mi SSE 3.5 mph - N/A   Clear
4:56 AM -9.9 °F -24.9 °F -14.1 °F 82% 30.40 in 10.0 mi SSE 6.9 mph - N/A   Clear
5:56 AM -7.1 °F -18.1 °F -11.9 °F 79% 30.38 in 1.2 mi SSE 4.6 mph - N/A   Haze
6:04 AM -7.1 °F -15.9 °F -11.9 °F 79% 30.15 in 0.5 mi SSE 3.5 mph - N/A   Haze
6:48 AM -9.0 °F -20.4 °F -14.1 °F 79% 30.16 in 0.5 mi SSE 4.6 mph - N/A   Haze
6:56 AM -9.9 °F -23.4 °F -14.1 °F 82% 30.39 in 0.2 mi SSE 5.8 mph - N/A Fog Light Freezing Fog
7:27 AM -9.9 °F - -15.0 °F 78% 30.16 in 0.2 mi Calm Calm - N/A   Haze
7:56 AM -11.0 °F - -13.0 °F 91% 30.41 in 0.2 mi Calm Calm - N/A Fog Light Freezing Fog
8:17 AM -9.0 °F - -11.0 °F 91% 30.17 in 0.5 mi Calm Calm - N/A Fog Light Freezing Fog
8:28 AM -9.0 °F -18.2 °F -11.9 °F 87% 30.17 in 0.8 mi West 3.5 mph - N/A   Overcast
8:35 AM -9.0 °F -18.2 °F -11.0 °F 91% 30.17 in 2.0 mi West 3.5 mph - N/A   Overcast
8:46 AM -7.1 °F - -7.1 °F 100% 30.17 in 5.0 mi Calm Calm - N/A   Mostly Cloudy
8:56 AM -5.1 °F - -5.1 °F 100% 30.39 in 9.0 mi Calm Calm - N/A   Scattered Clouds
9:14 AM -4.0 °F - -4.0 °F 100% 30.17 in 10.0 mi Calm Calm - N/A   Mostly Cloudy
9:56 AM -0.9 °F -15.3 °F -6.0 °F 79% 30.38 in 9.0 mi SSE 8.1 mph - 0.00 in   Overcast
10:56 AM 1.0 °F -11.7 °F -5.1 °F 75% 30.37 in 9.0 mi SSE 6.9 mph - N/A   Mostly Cloudy
11:10 AM 1.9 °F -7.6 °F -2.9 °F 80% 30.14 in 10.0 mi SE 4.6 mph - N/A   Mostly Cloudy
11:43 AM 3.0 °F -6.4 °F -0.9 °F 84% 30.13 in 10.0 mi SSE 4.6 mph - N/A   Overcast
11:56 AM 3.9 °F -5.3 °F -0.0 °F 84% 30.34 in 10.0 mi South 4.6 mph - N/A   Overcast
12:15 PM 3.9 °F - -0.0 °F 84% 30.12 in 10.0 mi Calm Calm - N/A   Scattered Clouds
12:24 PM 3.9 °F - 1.9 °F 91% 30.12 in 1.0 mi Calm Calm - N/A   Mist
12:31 PM 5.0 °F - 1.9 °F 87% 30.12 in 0.5 mi Calm Calm - N/A Fog Light Freezing Fog
12:46 PM 5.0 °F - 1.9 °F 87% 30.12 in 2.5 mi Calm Calm - 0.00 in Snow Light Snow
12:50 PM 6.8 °F - 3.2 °F 85% 30.11 in 9.0 mi Calm Calm - 0.00 in   Scattered Clouds
12:56 PM 6.1 °F - 1.9 °F 83% 30.32 in 10.0 mi Calm Calm - 0.00 in   Scattered Clouds
1:32 PM 6.1 °F - 1.0 °F 80% 30.10 in 2.5 mi Calm Calm - N/A   Haze
1:34 PM 6.1 °F - 1.0 °F 80% 30.10 in 3.0 mi Calm Calm - N/A   Haze
1:41 PM 6.1 °F - 1.0 °F 80% 30.10 in 6.0 mi Calm Calm - N/A   Haze
1:56 PM 6.1 °F - 1.0 °F 80% 30.30 in 10.0 mi Calm Calm - N/A   Partly Cloudy
2:56 PM 7.0 °F - 1.0 °F 77% 30.30 in 10.0 mi Calm Calm - N/A   Clear
3:56 PM 5.0 °F -2.1 °F -2.0 °F 73% 30.30 in 10.0 mi East 3.5 mph - N/A   Clear
4:56 PM 3.0 °F -4.4 °F -2.0 °F 80% 30.33 in 10.0 mi East 3.5 mph - N/A   Clear
5:56 PM 1.0 °F -8.7 °F -4.0 °F 79% 30.33 in 10.0 mi NW 4.6 mph - N/A   Clear
6:56 PM -4.0 °F -16.3 °F -9.0 °F 79% 30.34 in 10.0 mi WNW 5.8 mph - N/A   Clear
7:56 PM -5.1 °F -15.8 °F -11.9 °F 72% 30.35 in 10.0 mi West 4.6 mph - N/A   Clear
8:56 PM -7.1 °F -21.4 °F -11.0 °F 83% 30.34 in 10.0 mi WNW 6.9 mph - N/A   Clear
9:56 PM -9.0 °F -26.4 °F -14.1 °F 79% 30.36 in 10.0 mi West 9.2 mph - N/A   Clear
10:56 PM -9.0 °F -25.2 °F -14.1 °F 79% 30.36 in 10.0 mi West 8.1 mph - N/A   Clear
11:56 PM -9.0 °F -25.2 °F -14.1 °F 79% 30.36 in 10.0 mi WNW 8.1 mph - N/A   Clear